timestamp,surface_pressure_avg,surface_temp_avg,battery_voltage,lat,long
2020-10-29 00:09:01+00:00,311.0264,10.5,12.73,47.84626,-54.09684
2020-10-29 00:19:01+00:00,305.7647,10.4,12.73,47.84626,-54.09684
2020-10-29 00:29:01+00:00,300.9897,10.3,12.73,47.84626,-54.09684
2020-10-29 00:39:01+00:00,292.218,10.33,12.73,47.84626,-54.09684
2020-10-29 00:49:01+00:00,281.3698,10.53,12.73,47.84626,-54.09684
2020-10-29 00:59:01+00:00,276.6497,10.66,12.73,47.84626,-54.09684
2020-10-29 01:09:01+00:00,273.2614,10.1,12.73,47.84626,-54.09684
2020-10-29 01:19:01+00:00,267.4081,10.0,12.73,47.84626,-54.09684
2020-10-29 01:29:01+00:00,258.7047,10.0,12.73,47.84626,-54.09684
2020-10-29 01:39:01+00:00,249.7148,10.0,12.73,47.84626,-54.09684
2020-10-29 01:49:01+00:00,244.8464,10.09,12.73,47.84626,-54.09684
2020-10-29 01:59:01+00:00,236.1997,10.0,12.73,47.84626,-54.09684
2020-10-29 02:09:01+00:00,225.6514,9.9,12.73,47.84626,-54.09684
2020-10-29 02:19:01+00:00,219.8364,9.8,12.73,47.84626,-54.09684
2020-10-29 02:29:01+00:00,218.8165,9.8,12.73,47.84626,-54.09684
2020-10-29 02:39:01+00:00,212.0148,9.7,12.73,47.84626,-54.09684
2020-10-29 02:49:01+00:00,205.8631,9.7,12.73,47.84626,-54.09684
2020-10-29 02:59:01+00:00,207.4565,9.7,12.73,47.84626,-54.09684
2020-10-29 03:09:01+00:00,208.6447,9.7,12.73,47.84626,-54.09684
2020-10-29 03:19:01+00:00,200.3947,9.69,12.73,47.84626,-54.09684
2020-10-29 03:29:01+00:00,197.6698,9.6,12.73,47.84626,-54.09684
2020-10-29 03:39:01+00:00,206.5848,9.5,12.73,47.84626,-54.09684
2020-10-29 03:49:01+00:00,209.4448,9.5,12.73,47.84626,-54.09684
2020-10-29 03:59:01+00:00,206.1898,9.49,12.73,47.84626,-54.09684
2020-10-29 04:09:01+00:00,207.7748,9.5,12.73,47.84626,-54.09684
2020-10-29 04:19:01+00:00,213.1964,9.58,12.73,47.84626,-54.09684
2020-10-29 04:29:01+00:00,210.5898,9.72,12.73,47.84626,-54.09684
2020-10-29 04:39:01+00:00,205.7914,9.87,12.73,47.84626,-54.09684
2020-10-29 04:49:01+00:00,207.4532,10.02,12.73,47.84626,-54.09684
2020-10-29 04:59:01+00:00,212.8548,10.1,12.73,47.84626,-54.09684
2020-10-29 05:09:01+00:00,212.8615,10.06,12.73,47.84626,-54.09684
2020-10-29 05:19:01+00:00,210.2598,10.0,12.73,47.84626,-54.09684
2020-10-29 05:29:01+00:00,213.8814,10.0,12.73,47.84626,-54.09684
2020-10-29 05:39:01+00:00,225.7398,10.16,12.73,47.84626,-54.09684
2020-10-29 05:49:01+00:00,236.0447,10.3,12.73,47.84626,-54.09684
2020-10-29 05:59:01+00:00,239.6348,10.4,12.73,47.84626,-54.09684
2020-10-29 06:09:01+00:00,241.6514,10.4,12.73,47.84626,-54.09684
2020-10-29 06:19:01+00:00,244.0547,10.4,12.65,47.84626,-54.09684
2020-10-29 06:29:01+00:00,248.7448,10.57,12.65,47.84626,-54.09684
2020-10-29 06:39:01+00:00,248.128,10.6,12.65,47.84626,-54.09684
2020-10-29 06:49:01+00:00,244.0064,10.5,12.65,47.84626,-54.09684
2020-10-29 06:59:01+00:00,247.2298,10.5,12.65,47.84626,-54.09684
2020-10-29 07:09:01+00:00,251.668,10.54,12.65,47.84626,-54.09684
2020-10-29 07:19:01+00:00,255.0897,10.5,12.65,47.84626,-54.09684
2020-10-29 07:29:01+00:00,264.6364,10.49,12.65,47.84626,-54.09684
2020-10-29 07:39:01+00:00,277.8447,10.5,12.65,47.84626,-54.09684
2020-10-29 07:49:01+00:00,280.3614,10.6,12.65,47.84626,-54.09684
2020-10-29 07:59:01+00:00,284.8664,10.6,12.65,47.84626,-54.09684
2020-10-29 08:09:01+00:00,297.7014,10.6,12.65,47.84626,-54.09684
2020-10-29 08:19:01+00:00,303.8581,10.6,12.65,47.84626,-54.09684
2020-10-29 08:29:01+00:00,299.5663,10.6,12.65,47.84626,-54.09684
2020-10-29 08:39:01+00:00,302.253,10.6,12.65,47.84626,-54.09684
2020-10-29 08:49:01+00:00,307.2531,10.6,12.65,47.84626,-54.09684
2020-10-29 08:59:01+00:00,309.8514,10.6,12.65,47.84626,-54.09684
2020-10-29 09:09:01+00:00,311.5497,10.6,12.65,47.84626,-54.09684
2020-10-29 09:19:01+00:00,319.513,10.6,12.65,47.84626,-54.09684
2020-10-29 09:29:01+00:00,328.333,10.5,12.65,47.84626,-54.09684
2020-10-29 09:39:01+00:00,334.2881,10.4,12.65,47.84626,-54.09684
2020-10-29 09:49:01+00:00,336.1413,10.2,12.65,47.84626,-54.09684
2020-10-29 09:59:01+00:00,339.1746,10.02,12.65,47.84626,-54.09684
2020-10-29 10:09:01+00:00,346.5129,10.48,12.65,47.84626,-54.09684
2020-10-29 10:19:01+00:00,351.093,10.4,12.65,47.84626,-54.09684
2020-10-29 10:29:01+00:00,345.228,10.35,12.65,47.84626,-54.09684
2020-10-29 10:39:01+00:00,342.3829,10.58,12.65,47.84626,-54.09684
2020-10-29 10:49:01+00:00,343.63800000000015,10.6,12.65,47.84626,-54.09684
2020-10-29 10:59:01+00:00,347.2363,10.5,12.65,47.84626,-54.09684
2020-10-29 11:09:01+00:00,343.5897,10.5,12.65,47.84626,-54.09684
2020-10-29 11:19:01+00:00,335.6246,10.5,12.65,47.84626,-54.09684
2020-10-29 11:29:01+00:00,335.5463,10.4,12.65,47.84626,-54.09684
2020-10-29 11:39:01+00:00,337.348,10.3,12.65,47.84626,-54.09684
2020-10-29 11:49:01+00:00,330.6930000000001,10.05,12.65,47.84626,-54.09684
2020-10-29 11:59:01+00:00,325.028,9.8,12.65,47.84626,-54.09684
2020-10-29 12:09:01+00:00,325.2162,9.7,12.65,47.84626,-54.09684
2020-10-29 12:19:01+00:00,320.8463,9.6,13.05,47.84626,-54.09684
2020-10-29 12:29:01+00:00,305.143,9.48,13.05,47.84626,-54.09684
2020-10-29 12:39:01+00:00,301.7197,9.57,13.05,47.84626,-54.09684
2020-10-29 12:49:01+00:00,300.6114,9.6,13.05,47.84626,-54.09684
2020-10-29 12:59:01+00:00,292.0047,9.6,13.05,47.84626,-54.09684
2020-10-29 13:09:01+00:00,277.6714,9.6,13.05,47.84626,-54.09684
2020-10-29 13:19:01+00:00,270.6297,9.67,14.0,47.84626,-54.09684
2020-10-29 13:29:01+00:00,270.5081,9.75,14.0,47.84626,-54.09684
2020-10-29 13:39:01+00:00,262.0081,9.77,14.0,47.84626,-54.09684
2020-10-29 13:49:01+00:00,253.5047,9.7,14.0,47.84626,-54.09684
2020-10-29 13:59:01+00:00,253.2548,9.87,14.0,47.84626,-54.09684
2020-10-29 14:09:01+00:00,249.8547,9.99,14.0,47.84626,-54.09684
2020-10-29 14:19:01+00:00,238.5864,9.9,14.08,47.84626,-54.09684
2020-10-29 14:29:01+00:00,232.6581,9.95,14.08,47.84626,-54.09684
2020-10-29 14:39:01+00:00,227.6014,10.04,14.08,47.84626,-54.09684
2020-10-29 14:49:01+00:00,216.4581,10.1,14.08,47.84626,-54.09684
2020-10-29 14:59:01+00:00,208.7614,10.1,14.08,47.84626,-54.09684
2020-10-29 15:09:01+00:00,207.4681,10.1,14.08,47.84626,-54.09684
2020-10-29 15:19:01+00:00,204.8815,10.1,14.08,47.84626,-54.09684
2020-10-29 15:29:01+00:00,196.2798,10.15,14.08,47.84626,-54.09684
2020-10-29 15:39:01+00:00,187.7981,10.18,14.08,47.84626,-54.09684
2020-10-29 15:49:01+00:00,191.9665,10.16,14.08,47.84626,-54.09684
2020-10-29 15:59:01+00:00,197.0481,10.17,14.08,47.84626,-54.09684
2020-10-29 16:09:01+00:00,187.6965,10.2,14.08,47.84626,-54.09684
2020-10-29 16:19:01+00:00,183.2148,10.14,13.92,47.84626,-54.09684
2020-10-29 16:29:01+00:00,189.3281,10.2,13.92,47.84626,-54.09684
2020-10-29 16:39:01+00:00,189.5148,10.28,13.92,47.84626,-54.09684
2020-10-29 16:49:01+00:00,186.5482,10.3,13.92,47.84626,-54.09684
2020-10-29 16:59:01+00:00,188.7615,10.1,13.92,47.84626,-54.09684
2020-10-29 17:09:01+00:00,189.5281,10.2,13.92,47.84626,-54.09684
2020-10-29 17:19:01+00:00,190.2265,10.29,13.84,47.84626,-54.09684
2020-10-29 17:29:01+00:00,195.6614,10.36,13.84,47.84626,-54.09684
2020-10-29 17:39:01+00:00,198.3265,10.4,13.84,47.84626,-54.09684
2020-10-29 17:49:01+00:00,199.1414,10.4,13.84,47.84626,-54.09684
2020-10-29 17:59:01+00:00,206.2682,10.4,13.84,47.84626,-54.09684
2020-10-29 18:09:01+00:00,210.9314,10.4,13.84,47.84626,-54.09684
2020-10-29 18:19:01+00:00,213.9315,10.4,13.84,47.84626,-54.09684
2020-10-29 18:29:01+00:00,220.0364,10.4,13.84,47.84626,-54.09684
2020-10-29 18:39:01+00:00,224.4815,10.4,13.84,47.84626,-54.09684
2020-10-29 18:49:01+00:00,226.4464,10.4,13.84,47.84626,-54.09684
2020-10-29 18:59:01+00:00,229.1047,10.42,13.84,47.84626,-54.09684
2020-10-29 19:09:01+00:00,238.6214,10.48,13.84,47.84626,-54.09684
2020-10-29 19:19:01+00:00,245.2281,10.5,13.84,47.84626,-54.09684
2020-10-29 19:29:01+00:00,245.2548,10.52,13.84,47.84626,-54.09684
2020-10-29 19:39:01+00:00,245.6314,10.59,13.84,47.84626,-54.09684
2020-10-29 19:49:01+00:00,257.3148,10.6,13.84,47.84626,-54.09684
2020-10-29 19:59:01+00:00,268.5547,10.6,13.84,47.84626,-54.09684
2020-10-29 20:09:01+00:00,272.618,10.6,13.84,47.84626,-54.09684
2020-10-29 20:19:01+00:00,276.5381,10.6,13.44,47.84626,-54.09684
2020-10-29 20:29:01+00:00,288.6114,10.6,13.44,47.84626,-54.09684
2020-10-29 20:39:01+00:00,297.3897,10.65,13.44,47.84626,-54.09684
2020-10-29 20:49:01+00:00,301.6547,10.68,13.44,47.84626,-54.09684
2020-10-29 20:59:01+00:00,306.203,10.69,13.44,47.84626,-54.09684
2020-10-29 21:09:01+00:00,317.378,10.69,13.44,47.84626,-54.09684
2020-10-29 21:19:01+00:00,323.5796,10.69,13.05,47.84626,-54.09684
2020-10-29 21:29:01+00:00,324.893,10.67,13.05,47.84626,-54.09684
2020-10-29 21:39:01+00:00,326.7663,10.67,13.05,47.84626,-54.09684
2020-10-29 21:49:01+00:00,336.8713,10.66,13.05,47.84626,-54.09684
2020-10-29 21:59:01+00:00,339.5031,10.67,13.05,47.84626,-54.09684
2020-10-29 22:09:01+00:00,338.5463,10.69,13.05,47.84626,-54.09684
2020-10-29 22:19:01+00:00,340.2747,10.69,12.81,47.84626,-54.09684
2020-10-29 22:29:01+00:00,343.5963,10.7,12.81,47.84626,-54.09684
2020-10-29 22:39:01+00:00,345.2029,10.7,12.81,47.84626,-54.09684
2020-10-29 22:49:01+00:00,344.1546,10.7,12.81,47.84626,-54.09684
2020-10-29 22:59:01+00:00,343.1096,10.7,12.81,47.84626,-54.09684
2020-10-29 23:09:01+00:00,341.1330000000001,10.7,12.81,47.84626,-54.09684
2020-10-29 23:19:01+00:00,337.2063,10.7,12.73,47.84626,-54.09684
2020-10-29 23:29:01+00:00,336.2613,10.74,12.73,47.84626,-54.09684
2020-10-29 23:39:01+00:00,331.9147,10.74,12.73,47.84626,-54.09684
2020-10-29 23:49:01+00:00,328.918,10.74,12.73,47.84626,-54.09684
2020-10-29 23:59:01+00:00,326.9113,10.76,12.73,47.84626,-54.09684
